Погода в Инегёле

Турция     40°04′41″N   29°30′42″E
темп.,
°C
ветер,
м/с
пор.,
м/с
влажн.,
%
обл.,
%
осадки,
мм/ч
давл.,
гПа
погр.,
м
18 апреля, вс
вс1800:00+13ююз4453100 0.0 101258
03:00+15юз51550100 0.1 1012699
06:00+15ююз51468100 0.7 1013674
09:00+16ююз81763100 0.8 10131250
12:00+20юз101950100 0.1 10121695
15:00+18юз121854100 0.3 10131641
18:00+16юз91767100 0.5 10151565
21:00+14ююз61580100 1.9 10171204
19 апреля, пн
пн1900:00+13юз5147970 5.8 1016913
03:00+12ююз3787100 8.6 1016365
06:00+12ююз4786100 1.6 1013242
09:00+14ююз71775100 3.5 10121233
12:00+13ююз41080100 2.6 1014832
15:00+12юз2285100 2.9 101289
18:00+12зсз1282100 0.1 1010157
21:00+10ю0191100 0.6 100966
20 апреля, вт
вт2000:00+9юз61375100 1.4 1009910
03:00+7юз511732 1.5 1009294
06:00+7юз512741 0.0 1009474
09:00+10зюз612591 0.1 10101507
12:00+13зюз7124714 0.1 10112123
15:00+13зюз485261 0.5 10121760
18:00+11сз13617 0.9 1013883
21:00+6с019533 1.1 101711
21 апреля, ср
ср2100:00+5юз11912 0.0 101812
03:00+4ююз22865 0.0 101818
06:00+4ююз22840 0.0 101922
09:00+10юз11570 0.0 1018612
12:00+13ссв244563 0.0 10171876
15:00+13с235141 0.8 10171150
18:00+12ссв226221 1.3 1018395
21:00+7ююз118299 1.8 102010
22 апреля, чт
чт2200:00+7ююз228152 0.0 102113
03:00+6юз11795 0.0 102110
06:00+5ююз11802 0.0 102211
09:00+11всв11660 0.0 1021535
12:00+15ссв234925 0.0 10201787
15:00+15с33523 0.5 10201259
18:00+13ссв436236 0.2 1020907
21:00+8юз018310 0.3 102211